EW1044 Weather Reports


Display with metric or nautical units.
time (UTC)temp
F
wind
direction
speed
MPH
gust
MPH
rain 1hr
in
rain 24hr
in
rain mn
in
humidity
%
barometer
mb
20260504215441 80 253 14.0 21.0 0.00 0.00 0.00 50 1002.9
20260504214408 80 287 14.0 24.0 0.00 0.00 0.00 50 1002.9
20260504213403 79 255 16.0 24.0 0.00 0.00 0.00 49 1003.0
20260504212438 80 247 14.0 24.0 0.00 0.00 0.00 48 1002.9
20260504211441 80 243 15.0 21.0 0.00 0.00 0.00 49 1002.9
20260504210433 79 239 14.0 23.0 0.00 0.00 0.00 49 1002.9
20260504205401 79 269 13.0 24.0 0.00 0.00 0.00 50 1003.0
20260504203429 79 253 13.0 22.0 0.00 0.00 0.00 49 1003.2
20260504202403 78 251 15.0 26.0 0.00 0.00 0.00 50 1003.3
20260504200439 79 246 15.0 24.0 0.00 0.00 0.00 52 1003.5
20260504195426 78 243 16.0 21.0 0.00 0.00 0.00 51 1003.6
20260504194422 78 277 13.0 18.0 0.00 0.00 0.00 56 1003.8
20260504193422 77 255 14.0 20.0 0.00 0.00 0.00 51 1003.9
20260504192425 76 247 12.0 20.0 0.00 0.00 0.00 53 1003.9
20260504190400 76 236 12.0 23.0 0.00 0.00 0.00 52 1004.0
20260504184438 76 252 15.0 22.0 0.00 0.00 0.00 52 1003.9
20260504183435 76 254 12.0 18.0 0.00 0.00 0.00 54 1004.0
20260504182446 75 254 12.0 20.0 0.00 0.00 0.00 55 1004.0
20260504180411 74 263 13.0 20.0 0.00 0.00 0.00 53 1004.1
20260504175434 75 246 10.0 20.0 0.00 0.00 0.00 55 1004.2
20260504174436 74 248 12.0 18.0 0.00 0.00 0.00 54 1004.2
20260504173423 74 255 8.0 20.0 0.00 0.00 0.00 53 1004.2
20260504171420 74 256 15.0 21.0 0.00 0.00 0.00 54 1004.6
20260504170425 74 257 15.0 24.0 0.00 0.00 0.00 55 1004.8
20260504160434 71 246 15.0 25.0 0.00 0.00 0.00 56 1005.1
20260504150425 69 256 15.0 27.0 0.00 0.00 0.00 59 1005.2
20260504140432 68 241 13.0 19.0 0.00 0.00 0.00 59 1005.8
20260504130406 66 225 10.0 17.0 0.00 0.00 0.00 60 1006.2
20260504110402 61 217 6.0 10.0 0.00 0.00 0.00 74 1006.6
20260504100414 61 226 5.0 8.0 0.00 0.00 0.00 74 1007.6
20260504080406 58 147 4.0 5.0 0.00 0.00 0.00 82 1007.9
20260504050428 54 5 0.0 0.0 0.00 0.00 0.00 86 1009.3
20260504045415 54 5 0.0 0.0 0.00 0.00 0.00 86 1009.3
20260504044424 54 5 0.0 0.0 0.00 0.00 0.00 86 1009.5
20260504043407 54 5 0.0 0.0 0.00 0.00 0.00 85 1009.6
20260504042438 55 5 0.0 0.0 0.00 0.00 0.00 85 1009.7
20260504041444 55 5 0.0 0.0 0.00 0.00 0.00 84 1009.8
20260504040447 56 5 0.0 0.0 0.00 0.00 0.00 83 1009.8
20260504035410 56 5 0.0 0.0 0.00 0.00 0.00 82 1009.8
20260504034412 57 5 0.0 0.0 0.00 0.00 0.00 81 1009.9
20260504033402 57 5 0.0 0.0 0.00 0.00 0.00 80 1010.0
20260504032413 58 5 0.0 0.0 0.00 0.00 0.00 80 1010.1
20260504031446 58 5 0.0 0.0 0.00 0.00 0.00 79 1010.1
20260504030444 58 5 0.0 0.0 0.00 0.00 0.00 79 1010.0
20260504025430 58 5 0.0 0.0 0.00 0.00 0.00 78 1010.1
20260504024430 59 5 0.0 0.0 0.00 0.00 0.00 77 1010.1
20260504023408 59 5 0.0 0.0 0.00 0.00 0.00 77 1010.0
20260504022426 60 5 0.0 0.0 0.00 0.00 0.00 75 1009.8
20260504015407 62 5 0.0 0.0 0.00 0.00 0.00 72 1009.8
20260504013404 65 5 0.0 0.0 0.00 0.00 0.00 67 1009.7
20260504012403 66 356 0.0 0.0 0.00 0.00 0.00 65 1009.8
20260504011422 68 347 0.0 0.0 0.00 0.00 0.00 62 1009.8
20260504010430 69 347 0.0 0.0 0.00 0.00 0.00 57 1009.8
20260504004414 72 347 0.0 2.0 0.00 0.00 0.00 52 1009.8
20260504003445 72 347 0.0 3.0 0.00 0.00 0.00 51 1009.8
20260504002424 73 347 2.0 5.0 0.00 0.00 0.00 50 1009.9
20260504001447 73 342 3.0 5.0 0.00 0.00 0.00 49 1009.8
20260504000405 73 332 6.0 9.0 0.00 0.00 0.00 51 1010.0
20260503235406 74 309 8.0 14.0 0.00 0.00 0.00 53 1010.0
20260503234418 74 316 8.0 14.0 0.00 0.00 0.00 50 1010.1
20260503233431 74 316 9.0 16.0 0.00 0.00 0.00 49 1010.1
20260503232427 74 312 10.0 16.0 0.00 0.00 0.00 50 1010.1
20260503231443 75 318 9.0 15.0 0.00 0.00 0.00 46 1010.1
20260503230443 75 298 9.0 14.0 0.00 0.00 0.00 50 1010.2
20260503225419 75 314 8.0 19.0 0.00 0.00 0.00 50 1010.2
20260503224427 75 324 10.0 16.0 0.00 0.00 0.00 47 1010.2
20260503222401 75 314 13.0 20.0 0.00 0.00 0.00 48 1010.1
20260503221427 75 302 12.0 22.0 0.00 0.00 0.00 49 1010.2